map of DIY home
Great Circle Mapper logo
DIY - Airport
Location
City:  Diyarbakir, Turkey
ICAO / IATA:LTCC / DIY

Details
Type:Airport (Aerodrome, Airfield)
Use:Public/Civil, Military
Latitude:3753'38"N (37.893897)
Longitude:4012'04"E (40.201019)
Datum:WGS 1984
Elevation:2251 ft (686 m)
Runways:1
Longest:11644 × 148 ft (3549 × 45 m), paved

Time
Time Zone:UTC+2 (DST+3)
Local Time:

Weather
METAR:LTCC 011920Z 26006KT CAVOK 16/08 Q1017 NOSIG RMK RWY16 24002KT
TAF:LTCC 011640Z 0118/0218 33008KT CAVOK
BECMG 0202/0205 SCT040 BKN100
BECMG 0216/0218 CAVOK

Related Locations
Nearby:
Farthest:GMR: 11370 mi / 18298 km
Mangareva [Totegegie], Gambier Islands, PF

Find:

   beyond  
but within

Other Information
Maps:
NOTAMs:
Links:
Sources:

  
flag of Turkey   

Airport Diagram

Airport diagram for DIY

Airport diagram (OBSOLETE) from NGA

Sectional Chart

Flight Planning
at skyvector.com

Satellite Image

Google Maps Satellite View

 

Copyright © 2004-2014 Karl L. Swartz. All rights reserved.
The Great Circle Mapper name and logo are trademarks of the Great Circle Mapper.
All other trademarks mentioned herein belong to their respective owners.
Please see credits for attibutions and further copyright information.

  Follow gcmap on Facebook Follow gcmap on Twitter

hCard Microformat

Geo Microformat